Regional Weather Roundup
Issued by NWS

Home | Current Version | Previous Version | Graphics & Text | Print | Product List | Glossary On
Versions: 1 2 3 4 5 6 7 8 9 10 11 12 13 14 15 16 17 18 19 20 21 22 23 24 25 26 27 28 29 30 31 32 33 34 35 36 37 38 39 40 41 42 43 44 45 46 47 48 49 50
000
ASUS43 KLOT 170208
RWRIL

ILLINOIS REGIONAL WEATHER ROUNDUP
NATIONAL WEATHER SERVICE CHICAGO/ROMEOVILLE IL
800 PM CST SAT DEC 16 2017

NOTE: "FAIR" INDICATES FEW OR NO CLOUDS BELOW 12,000 FEET WITH NO
SIGNIFICANT WEATHER AND/OR OBSTRUCTIONS TO VISIBILITY.

* THESE STATIONS ARE NOT UNDER NWS QUALITY CONTROL. THEY ALSO MAY NOT
  REPORT WEATHER SUCH AS PRECIPITATION OR FOG.

ILZ001-002-007-009-015-016-024-170300-
NORTHWEST ILLINOIS

CITY           SKY/WX    TMP DP  RH WIND       PRES   REMARKS
MOLINE         CLOUDY    29  22  75 CALM      30.00R
STERLING*      CLOUDY    34  26  72 E5        30.02R WCI  30
SAVANNA*       PTCLDY    34  27  77 NE3       30.01S
$$

ILZ003-004-008-010-011-017-018-170300-
NORTH CENTRAL ILLINOIS

CITY           SKY/WX    TMP DP  RH WIND       PRES   REMARKS
ROCKFORD       CLOUDY    34  26  72 E10       30.04R WCI  26
FREEPORT*      PTCLDY    29  25  84 NE6       30.04R WCI  23
ROCHELLE*      CLOUDY    30  24  77 NE9       30.02R WCI  22
DE KALB*       CLOUDY    31  24  74 NE6       30.03R WCI  26
PERU*          CLOUDY    32  23  69 CALM      30.02R
$$

ILZ005-006-012>014-019>023-170300-
NORTHEAST ILLINOIS

CITY           SKY/WX    TMP DP  RH WIND       PRES   REMARKS
CHICAGO-OHARE  PTCLDY    35  29  78 NE5       30.03R WCI  31
CHICAGO-MIDWAY CLEAR     38  32  79 E5        30.04R WCI  34
AURORA         CLOUDY    28  21  75 CALM      30.02R
LANSING*       CLEAR     29  26  86 CALM      30.03R
JOLIET*        CLOUDY    29  24  81 CALM      30.04R
WAUKEGAN       PTCLDY    29  27  92 N5        30.04R WCI  24
DUPAGE AIRPORT CLEAR     32  26  78 NE3       30.02R
KANKAKEE*      CLOUDY    31  22  71 CALM      30.04R
WHEELING       CLEAR     33  31  92 CALM      30.05R
MORRIS*        CLOUDY    31  22  69 NE3       30.01R
ROMEOVILLE*    CLOUDY    33  26  78 NE6       30.03R WCI  27
NORTHERLY ISL    N/A     35  31  85 N3          N/A
$$

LMZ740>746-170300-
SOUTHERN LAKE MICHIGAN

STATION/POSITION SKY/WX   TEMP    WIND        PRES    VSBY  WAVE
                          AIR SEA DIR/SP/G                  HT/PER
                          (F)     (DEG/KT/KT) (MB)    (MI)  (FT/S)
HARRISON CRIB              41      60/  7/  8   N/A
BURNHAM HARBOR             35     340/  3/  4   N/A
CALUMET HARBOR             37      50/  2/  3 1016.2R
BURNS HARBOR               37        CALM     1017.3R
MICHIGAN CITY              37      80/  2/  3   N/A
$$

ILZ025>027-034>036-040-047-049-050-058-095>099-170300-
WEST-CENTRAL ILLINOIS

CITY           SKY/WX    TMP DP  RH WIND       PRES   REMARKS
QUINCY         CLOUDY    44  26  49 S7        29.99R
GALESBURG*     CLOUDY    32  25  77 CALM      30.01R
MACOMB*        CLOUDY    32  22  67 CALM      30.02R
JACKSONVILLE*  CLOUDY    46  25  43 S6        30.01S
PITTSFIELD*    CLOUDY    44  27  51 S6        30.01S
$$

ILZ028>032-037-038-041>044-048-051>054-059>061-170300-
CENTRAL ILLINOIS

CITY           SKY/WX    TMP DP  RH WIND       PRES   REMARKS
PONTIAC        CLOUDY    29  23  76 SE6       30.03R WCI  23
BLOOMINGTON    CLOUDY    36  25  64 SW10      30.03R WCI  28
DECATUR        CLOUDY    44  30  57 S15       30.04R
PEORIA         CLOUDY    36  26  67 CALM      30.01R
LACON*         CLOUDY    29  22  76 CALM      30.01R
LINCOLN*       CLOUDY    43  30  59 S5        30.02R
SPRINGFIELD    CLOUDY    47  30  51 S10       30.02R
TAYLORVILLE    CLOUDY    41  30  64 S9        30.04R
$$

ILZ033-039-045-046-055>057-062-063-170300-
EAST-CENTRAL ILLINOIS

CITY           SKY/WX    TMP DP  RH WIND       PRES   REMARKS
CHAMPAIGN      CLOUDY    40  29  64 S12       30.04R
DANVILLE*      CLOUDY    41  29  62 SW8       30.03R
RANTOUL*       CLOUDY    38  30  71 S7        30.04R WCI  33
MATTOON        CLOUDY    44  30  57 S12       30.05R
PARIS*         CLOUDY    42  31  65 S12       30.07S
$$

ILZ079-100>102-170300-
SOUTHWEST ILLINOIS

CITY           SKY/WX    TMP DP  RH WIND       PRES   REMARKS
ALTON          CLEAR     46  30  53 S12       30.05R
BELLEVILLE     PTCLDY    43  29  58 SW7       30.06R
CAHOKIA*       CLOUDY    47  27  45 S5        30.05R
SPARTA*        CLOUDY    44  32  62 S10       30.10S
$$

ILZ064>066-069>071-074>076-080>082-084>086-088>090-092>094-170300-
SOUTH-CENTRAL ILLINOIS

CITY           SKY/WX    TMP DP  RH WIND       PRES   REMARKS
CARBONDALE     CLOUDY    45  31  58 S13       30.12R
CAIRO*         PTCLDY    46  32  58 S8        30.15S
EFFINGHAM*     PTCLDY    45  31  58 S8        30.09R
MARION         PTCLDY    44  32  62 S9        30.13R
MT. VERNON     CLEAR     38  30  73 S8        30.11R WCI  32
CENTRALIA*     PTCLDY    44  32  61 S13       30.08R
SALEM*         PTCLDY    46  30  54 S10       30.08R
METROPOLIS*    CLOUDY    43  30  60 S5        30.16R
$$

ILZ067-068-072-073-078-083-087-091-170300-
SOUTHEAST ILLINOIS

CITY           SKY/WX    TMP DP  RH WIND       PRES   REMARKS
LAWRENCEVILLE  CLOUDY    38  28  67 S9        30.12R WCI  31
FLORA*         CLOUDY    45  32  60 S13       30.10R
FAIRFIELD*     PTCLDY    43  31  62 S6        30.10S
HARRISBURG*    CLOUDY    37  29  72 S7        30.14R WCI  32
ROBINSON*      CLOUDY    41  30  65 S9        30.11R
CARMI*         CLOUDY    37  29  73 S7        30.13R WCI  31
$$

ABBREVIATIONS USED IN REMARKS
   TC - TEMPERATURE IN CELSIUS
  WCI - WIND CHILL INDEX
   HX - HEAT INDEX
  VSB - VISIBILITY
$$





USA.gov is the U.S. government's official web portal to all federal, state and local government web resources and services.